Tracking 20232 objects as of 20-Jan-2020
HD Live streaming from Space Station
objects crossing your sky now

COSMOS 2528

Track COSMOS 2528 now!
10-day predictions


NORAD ID: 43657
Int'l Code: 2018-082A
Perigee: 907.4 km
Apogee: 918.8 km
Inclination: 67.2 °
Period: 103.1 minutes
Semi major axis: 7284 km
RCS: Unknown
Launch date: October 25, 2018
Source: Commonwealth of Independent States (former USSR) (CIS)
Launch site: PLESETSK MISSILE AND SPACE COMPLEX (PKMTR)
aabbcc
Your satellite tracking list
Your tracking list is empty




NASA's NSSDC Master Catalog

Two Line Element Set (TLE):
1 43657U 18082A   20020.36085324 -.00000075  00000-0  00000+0 0  9991
2 43657  67.1541   3.4843 0007861 280.0529  79.9509 13.96499437 63194
Source of the keplerian elements: AFSPC